Date,TemperatureHighF,TemperatureAvgF,TemperatureLowF,DewpointHighF,DewpointAvgF,DewpointLowF,HumidityHigh,HumidityAvg,HumidityLow,PressureMaxIn,PressureMinIn,WindSpeedMaxMPH,WindSpeedAvgMPH,GustSpeedMaxMPH,PrecipitationSumIn
2013-1-1,50.3,45.7,40.9,41.4,37.1,32.2,90,73,53,30.26,30.19,11,0,13,0.00
2013-1-2,53.2,45.5,39.9,38.6,36.2,33.2,89,71,47,30.24,30.13,11,0,12,0.00
2013-1-3,53.5,45.2,39.3,41.2,38.7,36.4,92,79,62,30.25,30.15,8,0,9,0.00
2013-1-4,55.9,47.1,41.4,41.6,38.4,37.0,88,73,51,30.28,30.17,11,0,11,0.00
2013-1-5,50.7,47.1,43.9,46.0,43.5,39.3,92,87,79,30.25,30.05,17,0,19,0.22
2013-1-6,50.5,45.9,42.9,45.2,42.6,40.7,92,88,75,30.18,30.03,11,0,11,0.08
2013-1-7,56.4,48.6,42.7,50.8,45.0,40.3,92,87,72,30.26,30.14,6,0,9,0.01
2013-1-8,59.4,50.6,45.0,48.6,45.5,42.8,92,83,65,30.24,30.12,4,0,5,0.00
2013-1-9,51.5,46.9,43.3,48.4,43.0,36.6,92,86,75,30.14,29.99,27,2,27,0.01
2013-1-10,49.9,43.9,41.0,37.6,35.1,32.6,81,71,55,30.19,30.07,18,2,19,0.00
2013-1-11,48.9,43.7,39.5,41.1,36.3,31.2,87,75,61,30.25,30.11,20,2,22,0.00
2013-1-12,47.7,42.3,37.4,37.7,32.5,22.6,89,70,38,30.25,30.13,11,0,13,0.00
2013-1-13,49.1,41.8,35.5,35.1,27.0,17.4,80,57,34,30.27,30.17,11,0,13,0.00
2013-1-14,48.9,43.1,37.0,35.4,23.1,15.9,78,46,30,30.39,30.21,12,1,16,0.00
2013-1-15,52.8,44.7,39.1,37.5,32.7,27.3,87,64,38,30.47,30.39,6,0,7,0.00
2013-1-16,55.9,45.5,37.7,38.9,35.9,33.6,90,70,47,30.42,30.24,5,0,6,0.00
2013-1-17,61.4,49.7,41.1,40.6,35.3,32.7,80,59,34,30.26,30.14,9,0,9,0.00
2013-1-18,61.6,51.5,44.1,41.4,36.6,32.5,79,59,34,30.21,30.12,12,0,12,0.00
2013-1-19,61.9,52.4,43.1,40.1,36.0,32.6,79,55,35,30.24,30.14,9,0,12,0.00
2013-1-20,61.3,52.2,44.0,39.1,35.3,31.0,74,54,32,30.22,30.11,11,0,12,0.00
2013-1-21,61.3,51.7,43.5,41.1,38.0,33.9,77,60,43,30.17,30.06,6,0,9,0.00
2013-1-22,60.9,52.3,44.0,43.3,40.6,37.0,83,65,48,30.09,29.98,11,0,13,0.00
2013-1-23,54.9,51.6,48.8,48.8,44.8,40.1,93,78,60,30.07,29.93,10,0,10,0.15
2013-1-24,57.7,52.4,48.8,51.2,49.2,46.8,93,89,78,30.18,30.05,8,0,10,0.00
2013-1-25,63.7,55.2,50.9,54.8,51.0,48.4,91,86,72,30.18,30.03,14,1,15,0.00
2013-1-26,52.4,50.4,47.2,48.9,46.0,42.2,94,85,72,30.04,29.98,21,6,22,0.00
2013-1-27,53.3,46.4,42.5,41.8,38.7,35.5,84,75,55,30.17,30.06,16,4,19,0.00
2013-1-28,55.7,48.1,43.8,43.7,40.8,36.6,90,76,58,30.29,30.15,16,3,19,0.00
2013-1-29,55.9,49.3,44.7,46.1,42.5,39.9,86,78,61,30.35,30.25,16,2,18,0.00
2013-1-30,63.3,53.5,47.4,48.4,43.8,40.2,84,71,45,30.34,30.24,14,2,15,0.00
2013-1-31,63.2,53.3,45.4,47.7,44.8,42.0,89,74,55,30.28,30.16,12,0,12,0.00
2013-2-1,64.8,54.2,46.9,48.2,45.5,43.7,93,74,51,30.20,30.10,19,1,19,0.00
2013-2-2,54.9,48.3,46.1,49.9,45.9,43.2,95,91,81,30.28,30.19,18,6,21,0.00
2013-2-3,56.9,48.7,45.5,46.4,43.7,40.4,94,83,64,30.25,30.13,17,4,19,0.00
2013-2-4,57.2,46.8,45.0,49.6,44.4,42.6,94,91,75,30.17,30.06,20,4,22,0.00
2013-2-5,52.3,47.5,45.0,47.1,44.1,40.7,96,88,80,30.15,30.06,22,3,22,0.00
2013-2-6,54.2,47.5,42.2,46.0,42.9,39.2,92,84,62,30.19,30.12,19,2,21,0.00
2013-2-7,51.7,46.4,41.2,47.2,42.5,39.0,92,87,72,30.17,29.98,14,1,17,0.33
2013-2-8,51.3,45.3,39.4,43.2,38.5,27.7,92,78,46,30.01,29.92,16,1,18,0.21
2013-2-9,57.6,49.4,44.6,39.7,31.7,24.3,72,51,29,30.08,29.98,14,2,16,0.00
2013-2-10,59.4,48.8,41.3,44.4,38.6,30.3,90,70,41,30.12,30.01,16,2,16,0.00
2013-2-11,62.9,51.7,45.0,45.6,35.9,27.9,93,58,29,30.22,30.05,18,4,19,0.00
2013-2-12,60.3,48.9,42.5,47.0,43.9,40.4,93,84,48,30.35,30.21,18,4,19,0.00
2013-2-13,61.2,48.2,43.2,50.1,44.4,41.0,93,87,66,30.33,30.19,21,4,23,0.01
2013-2-14,66.7,54.4,44.3,49.2,44.5,42.1,93,72,43,30.24,30.14,12,0,13,0.01
2013-2-15,70.5,59.3,50.2,46.2,42.6,39.6,76,55,36,30.25,30.19,9,0,10,0.00
2013-2-16,67.8,55.0,46.9,49.4,45.8,42.3,94,73,48,30.21,30.03,24,5,25,0.00
2013-2-17,58.7,49.4,44.7,47.4,44.4,41.7,94,83,63,30.04,29.95,24,10,26,0.00
2013-2-18,50.7,46.5,44.6,43.8,41.1,36.8,92,82,70,30.03,29.95,24,3,24,0.00
2013-2-19,46.2,43.0,39.1,43.3,38.4,32.9,95,84,72,29.96,29.74,20,2,23,0.39
2013-2-20,54.2,46.1,39.0,42.5,37.9,32.1,86,74,53,30.05,29.84,19,4,23,0.00
2013-2-21,56.2,48.3,41.9,41.7,38.1,32.7,82,69,42,30.16,30.04,17,3,17,0.00
2013-2-22,59.1,48.3,42.4,47.3,42.3,37.6,90,80,53,30.25,30.16,22,4,25,0.00
2013-2-23,56.6,49.2,44.5,47.7,39.2,29.0,98,70,46,30.25,30.15,19,3,22,0.01
2013-2-24,60.6,50.1,45.4,42.8,33.0,24.1,90,55,28,30.25,30.15,19,5,21,0.00
2013-2-25,57.2,48.5,43.2,47.9,43.1,39.1,92,82,66,30.26,30.16,19,4,19,0.00
2013-2-26,62.4,50.6,43.4,43.3,36.5,26.5,85,61,27,30.21,30.13,24,4,24,0.00
2013-2-27,64.8,51.4,44.2,49.2,43.4,35.7,94,75,46,30.36,30.19,22,5,24,0.00
2013-2-28,63.0,50.5,46.6,52.7,47.7,44.4,95,90,69,30.44,30.35,22,6,22,0.01
2013-3-1,71.0,56.8,47.3,52.1,48.4,45.4,95,76,50,30.42,30.22,16,2,16,0.00
2013-3-2,66.8,55.3,48.1,52.3,48.9,46.2,94,80,56,30.23,30.05,23,5,23,0.00
2013-3-3,53.1,48.2,45.6,49.2,46.0,43.2,94,92,84,30.09,30.03,25,9,26,0.00
2013-3-4,53.1,46.1,43.9,44.7,42.7,40.5,93,88,72,30.15,30.05,25,4,25,0.00
2013-3-5,53.9,48.3,42.2,45.4,42.0,38.9,92,79,66,30.06,29.83,28,4,31,0.11
2013-3-6,53.0,49.0,43.8,47.0,43.8,40.8,92,82,67,30.06,29.83,24,1,28,0.11
2013-3-7,53.3,46.6,42.9,43.6,41.8,37.3,93,84,56,29.99,29.84,16,3,18,0.07
2013-3-8,51.5,47.4,44.9,45.2,42.4,37.3,93,83,67,30.04,29.82,28,7,29,0.01
2013-3-9,59.4,50.8,43.0,46.4,42.8,38.5,90,75,49,30.29,30.04,24,5,24,0.00
2013-3-10,64.7,52.5,46.3,50.0,44.5,37.9,94,75,47,30.34,30.23,22,5,24,0.00
2013-3-11,70.2,52.0,45.1,49.9,44.8,39.8,95,79,38,30.25,30.08,24,6,25,0.00
2013-3-12,69.2,51.8,45.0,54.1,47.5,43.6,96,87,56,30.15,30.06,21,6,24,0.01
2013-3-13,70.7,57.9,46.0,55.3,50.0,43.5,93,77,51,30.15,30.05,16,2,19,0.01
2013-3-14,61.2,50.9,45.9,51.8,47.0,43.3,94,86,67,30.16,30.07,24,8,27,0.00
2013-3-15,67.3,51.8,46.3,52.1,47.3,44.0,94,85,57,30.12,30.02,26,8,27,0.00
2013-3-16,61.9,50.6,45.7,51.8,46.4,44.3,95,86,68,30.11,30.02,28,8,28,0.00
2013-3-17,62.4,51.4,46.2,46.6,44.0,41.9,92,76,51,30.15,30.03,27,7,28,0.00
2013-3-18,61.4,49.6,45.0,47.3,44.8,42.0,94,84,57,30.11,30.02,24,7,24,0.00
2013-3-19,63.1,51.2,46.8,48.5,44.9,41.1,91,80,50,30.12,30.05,21,2,23,0.08
2013-3-20,57.3,51.5,47.2,52.2,48.5,44.1,94,90,74,30.13,30.05,19,1,20,0.13
2013-3-21,57.1,49.2,41.8,46.3,42.9,39.1,94,79,65,30.13,30.00,21,5,21,0.00
2013-3-22,61.3,52.5,46.3,42.5,37.7,24.2,80,59,27,30.11,30.02,20,3,22,0.00
2013-3-23,67.0,52.8,46.2,43.4,37.9,27.1,89,60,24,30.13,30.03,20,5,22,0.00
2013-3-24,56.4,48.9,44.8,47.2,44.6,42.3,93,85,70,30.09,29.99,21,6,23,0.00
2013-3-25,50.0,46.6,44.1,45.0,43.0,41.9,92,87,79,30.03,29.94,16,8,24,0.00
2013-3-26,55.2,49.1,45.6,46.8,44.6,42.7,92,85,73,30.00,29.93,17,7,24,0.00
2013-3-27,58.3,52.4,47.8,52.5,49.9,45.5,96,91,80,30.01,29.94,12,1,13,0.00
2013-3-28,60.4,54.0,51.1,55.0,51.1,48.9,93,90,81,30.07,29.99,18,4,19,0.01
2013-3-29,72.8,54.9,48.7,55.3,49.7,46.4,92,84,52,30.07,30.00,23,5,24,0.01
2013-3-30,51.2,49.9,49.5,49.2,47.8,47.3,93,92,92,30.06,30.01,20,5,21,0.00
2013-3-31,61.5,56.2,52.4,54.2,51.8,49.8,92,86,73,30.05,29.98,6,2,18,0.07
2013-4-1,58.9,53.9,50.2,54.5,50.6,47.7,91,89,79,30.14,30.03,7,2,18,0.56
2013-4-2,55.6,50.3,47.2,51.2,47.6,44.7,91,90,85,30.18,30.08,18,9,26,0.00
2013-4-3,71.8,51.6,46.7,54.5,47.1,44.2,92,86,49,30.13,29.98,21,5,29,0.01
2013-4-4,60.9,55.3,47.8,57.2,52.3,45.3,92,90,84,30.11,29.98,13,2,17,0.38
2013-4-5,59.0,53.9,50.2,55.3,50.6,46.8,92,88,79,30.18,30.10,15,1,18,0.01
2013-4-6,55.7,52.4,50.5,53.0,49.2,47.3,91,89,87,30.19,30.13,19,4,19,0.03
2013-4-7,57.4,52.6,49.9,53.6,49.0,46.1,92,88,82,30.16,29.83,20,2,30,0.07
2013-4-8,57.7,51.7,45.4,46.1,41.5,35.5,90,69,47,30.02,29.79,32,7,36,0.00
2013-4-9,69.2,62.0,54.1,47.6,39.4,32.9,57,44,32,30.09,30.01,16,2,17,0.00
2013-4-10,75.7,62.4,48.8,52.7,46.6,38.0,91,60,35,30.16,30.02,28,8,29,0.00
2013-4-11,64.7,52.2,46.8,49.6,46.4,44.0,92,81,50,30.05,29.84,25,10,26,0.00
2013-4-12,57.4,49.7,45.9,49.2,45.6,43.0,92,86,73,29.92,29.82,27,9,30,0.00
2013-4-13,58.2,50.3,45.9,49.4,44.3,41.1,90,80,71,29.90,29.81,29,9,34,0.00
2013-4-14,56.9,49.3,45.1,44.0,41.3,38.3,90,74,54,29.94,29.86,26,7,28,0.00
2013-4-15,53.2,46.8,43.0,45.1,40.2,37.1,91,78,63,29.95,29.85,37,6,37,0.01
2013-4-16,58.0,51.2,42.5,42.7,37.6,32.5,77,60,43,30.14,29.95,20,4,21,0.00
2013-4-17,64.9,57.1,52.2,42.5,35.2,29.9,69,44,27,30.26,30.15,10,4,21,0.00
2013-4-18,70.3,57.9,47.8,46.1,40.4,33.5,88,54,29,30.26,30.17,15,5,23,0.00
2013-4-19,70.7,57.9,46.9,51.8,47.7,41.2,90,69,51,30.22,30.06,22,7,24,0.00
2013-4-20,70.5,56.0,47.4,49.4,46.1,41.6,90,71,37,30.10,29.97,23,8,25,0.00
2013-4-21,78.8,62.7,48.2,51.5,45.9,37.3,87,57,33,30.04,29.91,20,4,20,0.00
2013-4-22,83.3,66.8,57.6,50.3,46.1,38.9,69,49,24,29.95,29.82,23,4,23,0.00
2013-4-23,75.9,59.0,46.8,48.8,40.3,27.5,93,57,19,29.93,29.84,30,8,30,0.00
2013-4-24,52.8,49.1,45.2,49.1,46.4,43.3,93,90,83,29.94,29.82,26,7,28,0.00
2013-4-25,57.6,52.7,49.8,51.0,48.6,46.2,92,86,75,30.12,29.94,23,2,26,0.00
2013-4-26,53.1,49.7,47.2,47.8,46.2,44.7,94,88,82,30.23,30.12,20,4,29,0.00
2013-4-27,54.9,48.4,46.3,49.5,45.4,43.6,91,90,82,30.23,30.07,23,8,32,0.00
2013-4-28,71.7,57.6,46.9,53.1,48.4,44.1,91,73,46,30.09,29.88,16,4,22,0.00
2013-4-29,77.4,62.4,50.8,55.5,50.5,46.2,85,66,43,29.89,29.74,24,8,24,0.00
2013-4-30,69.3,58.1,49.5,50.0,45.2,29.1,86,65,24,29.85,29.77,23,8,25,0.00
2013-5-1,76.8,65.1,53.5,49.5,37.6,25.5,82,40,18,30.06,29.84,24,5,24,0.00
2013-5-2,88.7,70.5,58.7,52.8,39.2,26.9,76,36,16,30.14,30.06,17,4,20,0.00
2013-5-3,84.4,68.6,59.0,49.5,38.9,28.8,62,35,16,30.07,29.78,24,5,24,0.00
2013-5-4,73.2,59.1,52.3,53.8,46.6,32.3,89,66,35,29.78,29.55,27,8,30,0.00
2013-5-5,63.8,58.0,52.9,51.4,48.8,46.8,81,72,60,29.80,29.59,26,3,26,0.00
2013-5-6,66.4,59.1,54.1,52.8,50.8,48.8,88,75,55,29.96,29.80,17,2,17,0.00
2013-5-7,66.2,56.8,50.8,55.3,51.9,49.1,95,84,65,30.03,29.94,20,5,21,0.00
2013-5-8,56.2,51.4,49.4,50.9,48.8,47.4,95,91,80,30.13,30.02,22,6,26,0.00
2013-5-9,55.2,50.9,48.9,50.1,47.7,46.4,92,89,82,30.17,30.08,29,9,29,0.00
2013-5-10,52.7,49.8,48.4,50.0,47.3,45.9,92,91,90,30.18,30.09,32,10,33,0.00
2013-5-11,71.2,53.2,47.9,56.7,48.8,45.1,92,85,59,30.16,30.03,30,8,30,0.00
2013-5-12,59.0,53.8,49.7,55.0,50.4,46.3,92,88,81,30.15,30.01,27,10,27,0.01
2013-5-13,56.2,52.6,49.2,53.8,49.2,45.5,92,88,85,30.09,29.94,28,12,31,0.00
2013-5-14,60.1,53.4,49.2,52.5,48.4,45.6,90,83,73,29.98,29.91,34,11,35,0.00
2013-5-15,55.6,51.3,47.9,50.9,47.4,44.6,92,87,79,30.04,29.96,30,13,34,0.00
2013-5-16,58.1,52.7,50.4,54.7,48.7,46.1,89,86,84,30.03,29.96,21,7,24,0.00
2013-5-17,58.3,52.3,49.0,51.9,47.7,45.0,88,84,73,30.06,29.97,23,7,27,0.00
2013-5-18,63.1,55.0,48.1,52.2,48.5,43.7,87,79,63,30.13,30.05,26,8,30,0.00
2013-5-19,72.3,58.9,50.9,52.5,48.5,43.7,87,70,39,30.11,29.97,26,6,26,0.00
2013-5-20,81.2,61.4,48.9,55.5,48.6,43.7,88,65,30,30.00,29.91,31,8,31,0.00
2013-5-21,57.6,52.0,48.2,49.7,45.9,40.4,89,80,69,30.00,29.88,32,14,35,0.00
2013-5-22,48.5,47.6,46.1,41.0,37.5,32.0,76,68,57,29.99,29.97,15,2,22,0.00
2013-5-23,58.3,51.4,46.0,45.6,43.5,41.2,86,75,57,30.00,29.91,15,6,25,0.00
2013-5-24,60.2,51.6,46.5,47.4,44.6,42.2,88,77,59,30.00,29.93,24,7,27,0.00
2013-5-25,56.7,50.4,46.2,48.2,45.7,43.1,89,84,71,30.05,29.94,28,9,30,0.00
2013-5-26,58.7,53.1,49.2,53.8,49.0,45.5,89,86,80,30.12,30.03,22,6,26,0.00
2013-5-27,55.9,53.2,50.0,51.8,48.5,45.7,87,84,82,30.11,29.99,23,4,27,0.10
2013-5-28,59.2,54.8,51.5,55.5,50.0,46.8,88,84,81,30.00,29.91,23,6,25,0.02
2013-5-29,60.1,54.6,50.3,54.2,49.5,46.2,86,83,74,29.98,29.89,26,9,29,0.00
2013-5-30,61.4,54.6,47.7,50.2,47.2,43.1,86,76,64,29.99,29.92,23,8,25,0.00
2013-5-31,75.0,57.8,50.0,53.4,48.3,45.2,86,72,44,30.02,29.89,29,9,30,0.00
2013-6-1,71.3,56.0,50.7,52.7,48.3,46.4,85,76,50,29.93,29.88,16,2,18,0.00
2013-6-2,56.7,51.5,49.0,51.0,47.1,44.6,89,85,80,29.78,29.67,32,13,32,0.00
2013-6-3,63.0,54.2,49.7,53.5,48.7,44.8,86,82,70,29.86,29.72,23,5,25,0.00
2013-6-4,61.6,53.8,50.9,54.2,48.9,45.9,86,83,75,29.96,29.84,22,4,25,0.00
2013-6-5,56.7,52.2,50.1,51.2,47.7,44.8,89,85,81,30.00,29.91,29,5,30,0.00
2013-6-6,60.4,52.3,49.2,53.1,47.2,44.0,87,83,76,29.95,29.83,29,7,32,0.00
2013-6-7,70.2,57.6,50.1,58.1,50.8,44.8,88,78,63,29.90,29.70,26,6,28,0.00
2013-6-8,70.8,57.4,52.0,57.6,52.2,48.3,88,83,61,29.79,29.69,36,13,38,0.00
2013-6-9,58.4,55.4,53.6,54.5,50.4,47.9,87,83,81,29.88,29.79,21,3,21,0.00
2013-6-10,64.8,56.9,53.0,54.9,51.0,47.3,86,81,68,29.95,29.79,20,3,21,0.00
2013-6-11,63.1,55.1,51.6,53.8,49.5,46.3,86,82,69,29.99,29.88,18,8,27,0.00
2013-6-12,61.6,56.3,49.8,52.0,49.4,45.2,86,78,68,29.98,29.90,27,12,29,0.00
2013-6-13,67.5,56.0,48.8,51.6,48.3,44.6,86,76,53,30.09,29.98,24,10,26,0.00
2013-6-14,77.8,58.3,49.6,53.2,49.2,44.6,86,73,31,29.99,29.81,31,9,31,0.00
2013-6-15,54.9,50.1,48.2,50.4,45.4,43.3,87,84,82,30.00,29.81,30,8,33,0.00
2013-6-16,59.0,52.6,48.6,53.5,47.8,43.4,86,84,82,30.08,29.98,27,14,28,0.00
2013-6-17,61.4,55.2,49.1,56.0,50.5,43.5,88,84,80,30.09,30.02,28,11,30,0.00
2013-6-18,58.4,53.8,51.4,53.2,49.0,45.8,86,84,81,30.04,29.97,27,7,27,0.00
2013-6-19,62.2,55.9,50.4,52.2,48.6,45.1,86,77,66,30.06,29.99,26,8,32,0.00
2013-6-20,62.6,56.2,51.4,51.2,48.9,46.9,86,77,64,30.00,29.95,25,8,31,0.00
2013-6-21,70.5,54.2,49.4,53.5,49.0,44.2,86,83,54,29.97,29.90,28,14,29,0.00
2013-6-22,71.5,56.9,50.2,54.0,49.7,45.5,86,77,46,29.93,29.83,31,11,32,0.00
2013-6-23,59.7,55.0,51.5,53.8,49.4,46.2,83,81,80,29.88,29.81,27,5,28,0.04
2013-6-24,59.2,55.2,52.0,54.8,49.7,46.5,88,82,79,29.90,29.79,14,1,17,0.04
2013-6-25,68.8,62.0,59.0,63.8,55.5,52.2,86,79,75,29.98,29.87,12,2,15,0.12
2013-6-26,72.0,64.0,58.4,65.0,57.9,51.5,87,81,75,30.05,29.96,20,4,20,0.02
2013-6-27,71.7,63.0,56.6,63.5,56.2,49.5,87,79,69,30.07,29.99,24,8,25,0.00
2013-6-28,82.8,64.5,56.3,62.8,57.3,51.3,88,78,48,30.02,29.88,27,10,27,0.00
2013-6-29,86.3,64.7,56.5,60.8,55.6,52.4,87,73,40,29.91,29.78,26,11,27,0.00
2013-6-30,63.3,58.1,54.2,57.0,53.2,48.2,86,84,80,29.84,29.74,31,16,31,0.00
2013-7-1,82.8,59.6,52.8,61.7,52.1,46.7,87,77,48,29.85,29.78,30,9,31,0.00
2013-7-2,64.8,56.9,54.1,59.2,51.0,47.5,87,81,78,29.92,29.80,34,11,34,0.00
2013-7-3,77.3,60.4,54.5,62.8,53.6,47.9,88,79,57,29.91,29.74,31,9,31,0.00
2013-7-4,66.6,61.0,54.5,59.5,55.2,50.4,88,81,70,29.77,29.66,32,14,33,0.00
2013-7-5,60.0,54.4,51.2,53.8,49.7,45.2,89,84,78,29.78,29.69,30,9,31,0.00
2013-7-6,62.6,54.7,51.6,54.6,49.2,45.9,86,82,74,29.81,29.73,24,5,29,0.00
2013-7-7,62.6,55.2,52.2,55.5,49.7,46.4,85,82,77,29.86,29.77,28,8,31,0.00
2013-7-8,61.9,55.5,51.9,55.7,49.7,45.0,85,81,77,29.97,29.84,24,7,26,0.00
2013-7-9,52.4,51.3,49.8,45.7,44.7,43.5,79,78,77,30.01,29.96,18,2,20,0.00
2013-7-10,59.4,53.5,50.6,55.5,47.9,44.3,88,81,78,29.98,29.90,20,7,32,0.00
2013-7-11,57.1,52.4,49.8,53.3,47.1,43.6,88,82,78,29.94,29.87,22,6,34,0.00
2013-7-12,59.4,53.4,50.6,54.2,48.2,44.0,86,82,78,29.94,29.86,32,13,32,0.00
2013-7-13,62.4,54.5,50.8,55.5,48.6,44.0,86,81,77,29.96,29.88,30,10,30,0.00
2013-7-14,52.0,51.7,51.2,45.4,45.1,44.6,78,78,78,29.98,29.93,23,3,23,0.00
2013-7-15,58.5,54.7,49.3,54.5,50.0,42.7,88,84,77,29.93,29.84,23,4,26,0.00
2013-7-16,62.9,56.0,51.6,56.3,50.1,45.0,86,81,77,30.02,29.86,17,1,17,0.02
2013-7-17,61.9,55.6,52.0,56.4,49.6,44.4,85,80,75,30.09,30.01,27,7,27,0.00
2013-7-18,60.9,53.3,51.2,56.1,47.1,43.9,87,79,75,30.06,29.93,31,9,33,0.00
2013-7-19,57.7,53.0,51.0,54.2,47.0,43.7,88,80,76,29.95,29.81,32,8,34,0.00
2013-7-20,57.2,52.0,50.1,53.7,45.9,43.0,88,80,76,29.86,29.73,31,8,31,0.00
2013-7-21,58.7,52.7,50.4,54.8,46.5,43.1,89,79,76,29.88,29.77,27,5,27,0.00
2013-7-22,58.7,55.1,52.1,55.1,48.3,44.7,88,78,75,29.95,29.87,25,9,25,0.00
2013-7-23,66.2,57.2,53.7,60.5,50.9,45.6,88,80,73,30.00,29.93,23,7,24,0.00
2013-7-24,64.5,56.6,51.9,58.6,50.2,44.2,89,79,73,29.99,29.88,29,10,30,0.00
2013-7-25,58.1,53.2,50.8,54.5,46.5,43.2,89,78,74,30.02,29.92,30,8,30,0.00
2013-7-26,60.4,54.2,51.6,57.0,47.4,44.0,90,78,74,30.10,29.99,29,5,29,0.00
2013-7-27,60.3,54.2,52.2,56.4,47.2,44.3,89,77,74,30.04,29.85,29,4,29,0.01
2013-7-28,57.9,53.9,52.4,54.4,47.6,44.4,89,79,74,29.88,29.81,20,2,21,0.00
2013-7-29,62.4,55.8,52.5,56.0,50.1,45.2,87,81,76,30.00,29.84,19,4,23,0.00
2013-7-30,61.4,54.6,51.2,55.5,48.5,42.9,86,80,73,30.10,30.00,32,6,33,0.00
2013-7-31,58.4,54.4,50.6,54.5,48.3,42.3,87,80,72,30.09,29.99,28,7,30,0.00
2013-8-1,59.6,55.2,52.3,54.5,49.7,44.7,86,82,75,30.06,29.95,30,12,33,0.00
2013-8-2,59.9,53.5,50.2,54.9,47.1,42.1,87,79,73,29.98,29.88,30,11,33,0.01
2013-8-3,59.7,53.3,50.1,55.1,46.2,42.2,87,77,73,29.98,29.89,29,6,30,0.00
2013-8-4,59.6,53.2,51.0,54.4,46.2,42.6,89,77,73,30.01,29.93,32,5,32,0.00
2013-8-5,58.9,53.3,50.7,54.7,46.3,42.7,87,77,72,30.03,29.93,26,4,29,0.01
2013-8-6,61.0,55.3,51.3,55.7,48.7,43.0,87,78,72,30.04,29.97,22,2,22,0.01
2013-8-7,64.5,57.9,53.9,57.8,51.1,45.1,87,78,72,30.10,30.02,15,1,16,0.04
2013-8-8,62.9,56.6,52.4,58.0,49.2,43.9,87,76,70,30.03,29.92,26,5,27,0.06
2013-8-9,61.4,55.6,51.9,56.9,48.5,43.5,87,77,71,29.99,29.91,23,4,25,0.02
2013-8-10,63.9,56.8,54.3,58.4,49.5,45.5,87,77,71,30.05,29.98,26,5,26,0.00
2013-8-11,56.7,54.1,52.8,52.3,45.9,44.0,86,74,71,30.02,29.93,27,8,30,0.01
2013-8-12,53.9,53.3,52.8,45.1,44.6,44.0,73,72,72,29.97,29.94,16,2,18,0.00
2013-8-13,71.3,58.0,53.7,58.8,52.1,44.9,87,81,61,29.98,29.89,24,11,31,0.00
2013-8-14,63.2,57.0,52.2,59.0,49.6,43.3,87,76,68,29.97,29.89,28,12,29,0.00
2013-8-15,66.6,61.0,56.9,62.9,52.4,46.8,88,74,68,29.97,29.89,23,9,25,0.00
2013-8-16,62.2,57.8,55.2,58.4,49.2,45.6,88,73,68,29.98,29.93,28,10,28,0.01
2013-8-17,63.6,57.6,54.8,59.4,49.9,45.2,89,76,69,29.98,29.85,28,11,29,0.00
2013-8-18,80.0,64.5,54.5,62.4,54.3,44.5,88,70,46,29.89,29.76,24,6,26,0.00
2013-8-19,71.0,61.0,56.4,60.4,54.8,46.4,88,80,65,29.88,29.77,32,13,33,0.00
2013-8-20,64.5,57.3,55.3,58.9,50.8,45.3,88,79,68,29.89,29.81,20,8,30,0.00
2013-8-21,65.0,58.2,55.1,57.2,52.2,46.9,86,80,73,29.94,29.84,23,4,28,0.00
2013-8-22,66.2,58.4,55.8,57.0,52.7,49.6,85,81,70,29.97,29.87,29,6,31,0.00
2013-8-23,57.7,55.7,53.7,52.8,48.7,45.1,84,77,72,29.92,29.79,29,9,31,0.00
2013-8-24,63.8,57.8,53.9,58.6,50.6,44.2,87,77,68,29.89,29.81,29,10,29,0.00
2013-8-25,70.5,61.8,57.8,64.4,53.6,47.3,87,75,66,29.93,29.88,18,3,18,0.00
2013-8-26,62.6,59.1,56.2,57.2,52.5,46.6,85,79,70,30.00,29.89,17,6,25,0.02
2013-8-27,61.7,57.0,53.3,57.2,48.6,43.8,87,74,69,29.90,29.82,17,9,27,0.01
2013-8-28,66.1,59.5,55.5,62.5,50.6,45.6,88,73,68,29.93,29.84,16,8,26,0.01
2013-8-29,66.1,61.3,58.0,61.9,53.1,47.5,89,75,66,30.05,29.93,16,7,27,0.01
2013-8-30,74.3,62.5,56.7,64.7,54.9,46.3,88,77,66,30.03,29.90,19,10,26,0.01
2013-8-31,60.6,56.5,54.3,55.8,46.8,44.4,84,70,68,29.96,29.88,25,15,29,0.01
2013-9-1,63.7,58.7,54.0,59.6,50.7,44.1,88,75,68,29.94,29.87,23,9,23,0.00
2013-9-4,64.9,60.3,58.2,60.6,52.0,47.7,86,74,68,29.96,29.92,23,10,26,0.00
2013-9-5,68.0,60.6,56.6,60.2,53.5,46.2,86,77,67,30.01,29.92,28,9,28,0.00
2013-9-6,69.0,59.4,56.4,60.8,54.6,50.0,87,84,75,29.98,29.93,13,1,15,0.00
2013-9-7,88.9,69.4,54.2,62.0,53.4,44.1,84,58,36,29.85,29.78,18,7,25,0.00
2013-9-8,70.1,58.4,53.8,61.0,50.9,44.0,88,76,66,29.86,29.74,20,9,27,0.00
2013-9-9,76.1,59.6,52.6,60.3,50.8,43.8,86,73,58,29.81,29.69,21,8,30,0.00
2013-9-10,67.2,60.3,55.6,61.1,52.9,45.2,88,77,66,29.88,29.72,9,4,22,0.02
2013-9-11,69.0,62.4,59.8,59.7,57.1,55.0,87,83,71,29.98,29.88,3,1,15,0.00
2013-9-12,66.8,60.0,56.4,61.3,51.2,46.0,85,73,67,29.97,29.87,27,6,29,0.02
2013-9-13,57.9,55.5,53.4,52.3,46.3,43.5,82,71,68,29.90,29.74,31,15,33,0.01
2013-9-14,59.8,55.7,53.1,56.2,47.6,43.2,88,75,68,29.82,29.72,26,11,30,0.01
2013-9-15,66.0,59.4,54.5,59.0,52.4,46.4,86,78,66,29.86,29.76,22,8,23,0.00
2013-9-16,67.8,58.8,55.3,60.3,50.5,44.5,87,74,65,29.89,29.77,28,9,28,0.00
2013-9-17,62.4,58.7,54.8,56.6,51.0,44.3,86,76,67,29.88,29.81,30,9,33,0.00
2013-9-18,74.8,61.4,54.5,57.6,52.1,48.3,86,73,41,29.91,29.80,22,5,23,0.00
2013-9-19,81.5,62.2,53.1,59.2,52.1,46.8,85,71,46,29.85,29.73,24,7,26,0.00
2013-9-20,67.5,59.0,52.0,62.3,51.7,42.5,86,77,65,29.85,29.75,24,4,25,0.00
2013-9-21,62.6,59.3,55.9,58.0,51.8,46.9,86,77,67,29.89,29.79,18,2,19,0.60
2013-9-22,66.2,58.9,52.7,57.4,52.0,43.1,86,78,69,29.99,29.89,22,4,24,0.01
2013-9-23,77.8,62.5,56.1,61.4,55.0,47.1,86,77,50,30.01,29.92,20,5,21,0.00
2013-9-24,64.7,58.7,55.2,58.0,53.4,49.4,85,83,76,29.99,29.89,24,7,26,0.00
2013-9-25,63.7,57.0,53.2,52.0,49.4,46.1,85,76,64,29.93,29.81,24,6,27,0.00
2013-9-26,66.8,56.8,54.0,46.9,42.3,39.1,76,59,39,29.93,29.83,13,2,14,0.00
2013-9-27,75.3,64.5,55.1,49.4,42.4,35.8,81,46,27,30.08,29.97,18,5,20,0.00
2013-9-28,77.0,62.1,55.8,55.8,49.7,39.9,84,66,31,30.07,29.98,23,4,25,0.00
2013-9-29,69.7,62.1,56.0,61.6,54.9,46.8,84,77,70,30.09,30.03,14,2,15,0.00
2013-9-30,65.7,60.9,55.5,60.7,51.2,43.2,86,71,58,30.06,29.95,24,3,24,0.01
2013-10-1,66.0,58.5,51.9,53.9,49.5,43.5,86,72,61,30.00,29.90,20,6,23,0.00
2013-10-2,67.5,58.4,52.3,54.0,49.2,42.3,85,72,57,30.00,29.91,21,4,27,0.00
2013-10-3,68.3,60.8,53.1,46.4,40.5,33.0,72,49,30,30.07,29.94,20,2,20,0.00
2013-10-4,76.3,68.5,61.2,37.1,33.9,30.6,39,28,19,30.07,29.96,16,2,17,0.00
2013-10-5,81.6,70.7,61.7,44.3,35.9,28.8,52,30,16,30.17,30.06,11,1,12,0.00
2013-10-6,83.4,68.9,59.3,46.2,37.2,31.1,54,33,19,30.09,29.97,15,2,15,0.00
2013-10-7,77.3,63.3,52.3,50.6,41.3,30.9,84,48,24,29.97,29.85,21,6,22,0.00
2013-10-8,66.7,55.2,50.9,53.1,48.5,45.0,85,79,52,29.90,29.70,22,7,23,0.00
2013-10-9,63.7,55.6,49.5,49.8,46.3,42.4,85,72,53,29.75,29.61,18,4,18,0.00
2013-10-10,63.5,53.8,49.4,52.0,47.3,41.5,85,79,62,30.00,29.74,23,7,24,0.00
2013-10-11,57.4,50.3,47.7,51.3,43.9,39.8,85,79,74,30.08,29.97,24,6,25,0.00
2013-10-12,54.9,50.7,47.5,49.8,45.1,39.6,86,81,74,30.01,29.90,23,7,25,0.01
2013-10-13,69.0,57.5,49.8,54.2,47.0,38.8,86,70,38,30.05,29.91,17,3,19,0.00
2013-10-14,74.9,62.7,52.3,53.2,44.8,38.3,85,55,31,30.10,29.98,12,1,13,0.00
2013-10-15,77.5,65.2,55.1,52.9,40.7,33.7,82,44,23,30.03,29.93,14,2,15,0.00
2013-10-16,80.1,66.9,57.2,51.5,40.1,33.7,81,40,23,30.07,29.97,13,2,13,0.00
2013-10-17,79.1,64.7,51.5,51.0,42.5,34.5,85,48,23,30.06,29.94,18,4,19,0.00
2013-10-18,71.5,56.9,49.3,53.7,47.4,41.4,85,72,48,30.04,29.96,22,3,23,0.00
2013-10-19,76.2,59.1,49.4,53.7,48.2,42.5,85,69,37,30.06,29.97,22,3,24,0.00
2013-10-20,68.0,51.8,46.6,53.6,45.3,40.4,87,79,59,30.01,29.89,24,5,26,0.00
2013-10-21,57.3,49.2,47.3,52.2,42.4,39.8,88,77,73,30.00,29.91,21,4,23,0.01
2013-10-22,65.2,50.0,47.1,57.6,42.7,39.6,88,76,71,30.02,29.91,24,5,24,0.01
2013-10-23,62.7,49.3,46.0,56.2,42.0,38.5,89,76,71,29.98,29.89,28,6,28,0.01
2013-10-24,55.3,50.3,47.7,50.2,44.2,39.4,87,80,73,30.09,29.97,15,2,18,0.00
2013-10-25,63.4,54.5,48.1,53.4,48.8,42.1,87,81,69,30.16,30.07,18,4,18,0.00
2013-10-26,74.0,56.1,47.8,56.0,47.0,39.2,86,72,46,30.13,29.99,23,6,25,0.00
2013-10-27,53.6,50.4,47.4,49.7,44.0,38.8,88,79,71,30.02,29.67,27,4,28,0.01
2013-10-28,56.1,51.7,48.5,50.0,47.1,43.3,87,84,74,29.84,29.66,24,4,34,0.00
2013-10-29,59.0,53.1,49.3,50.2,46.7,42.4,85,79,66,30.04,29.83,14,2,15,0.00
2013-10-30,63.6,53.1,47.9,52.9,44.9,40.1,86,74,61,30.14,30.03,15,2,15,0.01
2013-10-31,70.2,57.8,49.9,52.1,45.9,40.7,86,66,46,30.17,30.05,16,2,17,0.00
2013-11-1,71.7,61.3,50.5,50.5,46.8,41.9,85,61,43,30.12,29.99,11,1,12,0.00
2013-11-2,61.4,53.6,47.5,52.0,46.7,39.2,86,78,56,30.01,29.89,24,7,25,0.00
2013-11-3,61.8,53.4,48.2,47.6,41.5,33.0,84,65,36,30.05,29.91,15,2,15,0.00
2013-11-4,63.8,56.1,47.2,42.6,37.5,32.4,74,51,31,30.06,29.91,15,2,15,0.00
2013-11-5,70.0,60.9,52.8,43.9,36.7,33.1,59,41,28,30.20,30.04,13,2,14,0.00
2013-11-6,69.4,61.0,52.0,43.3,41.2,35.4,68,49,36,30.24,30.13,7,0,8,0.00
2013-11-7,71.0,58.8,51.5,51.7,44.1,38.8,85,60,37,30.15,30.05,18,5,19,0.00
2013-11-8,70.0,55.2,49.4,54.7,46.7,41.4,86,73,56,30.07,29.94,22,4,22,0.00
2013-11-9,69.4,54.1,47.3,52.1,45.7,40.2,85,74,52,30.03,29.96,19,4,21,0.01
2013-11-10,59.9,52.7,49.6,52.2,46.4,42.3,84,79,73,30.11,30.00,18,4,18,0.01
2013-11-11,63.6,55.5,50.5,53.5,48.2,43.7,84,77,61,30.16,30.05,14,2,15,0.00
2013-11-12,67.6,60.1,54.5,52.8,50.1,46.8,83,70,54,30.25,30.14,16,2,17,0.00
2013-11-13,71.9,56.3,50.5,57.2,48.3,41.7,84,75,58,30.23,30.08,23,6,25,0.00
2013-11-14,54.6,51.6,49.9,50.3,44.4,41.3,88,77,71,30.10,29.87,23,5,29,0.01
2013-11-15,61.9,52.0,48.4,49.0,45.7,39.1,88,80,45,29.88,29.72,23,6,23,0.00
2013-11-16,54.7,48.3,46.7,45.3,43.0,41.7,87,82,67,29.85,29.74,18,3,20,0.00
2013-11-17,57.6,51.0,48.1,49.1,44.6,40.2,86,79,68,30.07,29.91,9,3,17,0.00
2013-11-18,55.9,51.3,46.8,49.3,46.4,39.3,85,83,73,30.14,30.07,5,0,11,0.01
2013-11-19,57.1,54.1,51.4,52.1,47.6,45.4,85,79,68,30.08,29.92,10,1,11,0.38
2013-11-20,56.8,53.7,48.8,46.4,43.9,40.3,77,69,68,29.93,29.82,18,3,20,0.72
2013-11-21,59.6,53.7,48.6,47.6,35.7,26.9,86,53,31,29.96,29.87,17,2,17,0.01
2013-11-22,67.8,59.8,53.3,30.1,24.5,19.1,39,26,17,30.00,29.89,13,2,17,0.00
2013-11-23,63.9,56.0,50.0,48.5,35.1,22.6,85,49,25,30.08,29.93,14,3,19,0.00
2013-11-24,60.6,52.7,46.2,48.8,43.4,39.6,85,71,53,30.24,30.07,9,1,10,0.00
2013-11-25,61.7,52.5,45.0,47.3,43.6,38.0,84,72,57,30.31,30.23,10,0,11,0.00
2013-11-26,61.8,52.8,47.7,46.2,43.8,41.4,85,72,50,30.25,30.02,10,0,13,0.00
2013-11-27,62.9,54.1,47.3,47.9,45.5,42.7,85,73,54,30.02,29.83,9,0,9,0.00
2013-11-28,66.1,56.7,50.2,46.9,44.8,41.6,84,66,44,30.06,29.85,14,2,16,0.00
2013-11-29,65.3,56.9,50.5,51.1,45.9,41.8,84,67,45,30.19,30.05,16,1,18,0.00
2013-11-30,62.9,54.6,48.6,52.2,45.8,41.9,85,73,53,30.26,30.18,15,1,15,0.00
2013-12-1,67.2,57.4,49.5,52.1,46.7,42.5,85,69,46,30.33,30.20,10,1,11,0.00
2013-12-2,56.3,52.4,47.8,51.7,45.3,39.8,86,77,70,30.21,29.95,23,4,24,0.00
2013-12-3,53.4,48.4,44.8,44.8,37.6,27.3,86,67,50,29.95,29.84,27,4,29,0.00
2013-12-4,49.2,44.3,39.5,33.4,27.4,23.1,70,52,37,30.07,29.93,7,0,10,0.00
2013-12-5,47.7,41.7,36.1,34.1,27.2,18.4,76,58,32,30.15,30.06,14,1,17,0.00
2013-12-6,49.8,44.7,37.6,43.8,37.0,30.6,86,75,49,30.18,29.90,21,1,21,0.36
2013-12-7,46.2,41.6,36.8,39.5,31.1,25.4,86,67,46,30.25,29.92,22,3,27,0.01
2013-12-8,43.6,38.6,35.1,31.7,25.2,19.3,84,60,41,30.31,30.22,12,0,13,0.00
2013-12-9,48.1,40.7,33.9,32.1,21.3,14.5,75,48,26,30.40,30.30,13,1,14,0.00
2013-12-10,50.4,42.4,36.2,33.8,30.3,26.9,82,64,40,30.39,30.19,13,0,14,0.00
2013-12-11,55.0,46.3,39.1,36.7,32.6,28.1,84,60,36,30.22,30.16,10,0,13,0.00
2013-12-12,56.1,47.6,40.5,44.5,38.0,31.3,87,71,48,30.25,30.16,14,2,15,0.00
2013-12-13,55.4,48.8,42.7,45.8,39.6,32.0,85,71,45,30.32,30.21,10,1,11,0.00
2013-12-14,59.8,50.4,42.2,42.0,38.6,36.0,85,65,42,30.38,30.29,7,0,8,0.00
2013-12-15,59.3,49.2,43.1,42.4,39.3,37.1,85,70,49,30.34,30.22,4,0,6,0.00
2013-12-16,65.4,55.0,47.5,41.2,37.8,36.0,75,54,34,30.22,30.10,9,0,11,0.00
2013-12-17,62.1,54.1,48.3,44.5,40.6,37.0,73,60,50,30.15,30.01,9,0,9,0.00
2013-12-18,54.0,49.5,47.4,46.0,41.9,37.6,84,76,60,30.01,29.75,26,6,26,0.00
2013-12-19,56.9,51.0,46.4,43.1,35.6,22.2,85,57,33,29.93,29.73,22,3,29,0.00
2013-12-20,57.4,50.6,44.8,44.6,29.8,15.6,84,46,28,30.00,29.91,13,1,14,0.00
2013-12-21,59.6,51.6,45.8,49.9,46.0,38.6,85,81,69,30.07,29.95,13,2,16,0.00
2013-12-22,61.9,54.5,46.9,46.5,41.9,39.1,85,64,44,30.26,30.06,10,0,10,0.00
2013-12-23,60.0,52.8,45.6,43.9,41.1,38.8,83,65,50,30.37,30.25,8,0,9,0.00
2013-12-24,64.4,55.5,47.9,47.1,42.4,38.4,80,62,46,30.32,30.19,10,0,10,0.00
2013-12-25,63.2,55.1,49.2,43.7,41.0,37.7,74,59,47,30.27,30.17,11,0,11,0.00
2013-12-26,64.2,54.2,46.1,45.5,40.2,36.5,84,60,40,30.24,30.15,10,0,10,0.00
2013-12-27,59.0,52.1,45.8,43.6,39.9,37.4,82,63,51,30.22,30.11,5,0,7,0.00
2013-12-28,62.9,53.8,43.6,40.4,36.2,32.3,77,53,32,30.14,30.02,9,0,9,0.00
2013-12-29,65.0,56.4,49.1,36.6,29.5,22.7,61,37,21,30.15,30.07,11,0,11,0.00
2013-12-30,61.2,50.9,45.4,46.2,40.0,34.7,86,67,43,30.24,30.15,15,2,15,0.00
2013-12-31,60.2,49.9,44.0,47.0,40.6,35.4,86,72,49,30.25,30.14,11,0,11,0.00
2014-1-1,62.9,52.9,43.9,45.8,39.9,32.0,86,64,35,30.20,30.11,6,0,7,0.00
2014-1-2,63.5,54.7,47.0,40.6,38.1,35.5,69,54,39,30.16,30.03,6,0,6,0.00